User: anonymous   Login
Location: Unspecified
(0.0000°N, 0.0000°E)
Time: 01:21:41
(UTC+02:00)
Language:

Cosmos 2263 Rocket - Orbit

View from above orbital plane
View from above orbital plane
View from above satellite
View from above satellite

Ground track
Ground track

The orbit data is extracted from the following two-line orbital elements,

1 22803U 93059B   15215.55403185  .00000159  00000-0  10341-3 0  9993
2 22803 070.9888 249.9554 0017948 339.7216 020.3192 14.16719775131454
Epoch (UTC): 03 August 2015 13:17:48
Eccentricity: 0.0017948
inclination: 70.9888°
perigee height: 823 km
apogee height: 849 km
right ascension of ascending node: 249.9554°
argument of perigee: 339.7216°
revolutions per day: 14.16719775
mean anomaly at epoch: 20.3192°
orbit number at epoch: 13145

The dashed part of the orbit path shows where the satellite is in the earth's shadow,  

DLR